Location: Cheching
(60.0667°N, 164.2167°W)
Time: 08:20:53
(UTC+00:00)

XW-2D - Pass Details

Date: 24 January 2021
Orbit: 505 x 525 km, 97.5° (Epoch: 09 March)

Event Time Altitude Azimuth Distance (km) Brightness Sun altitude
Rises 05:05:31 0° 209° (SSW) 2,627 ? -16.1°
Reaches altitude 10° 05:08:12 10° 230° (SW) 1,751 ? -16.4°
Maximum altitude 05:10:44 17° 273° (W) 1,376 ? -16.7°
Drops below altitude 10° 05:13:16 10° 315° (NW) 1,768 ? -17.0°
Sets 05:16:00 0° 336° (NNW) 2,667 ? -17.4°
